Lawrence, KS

12:17 PM CDT on April 26, 2017 (GMT -0500)
Lawrence Municipal

Weather History for KLWC - July, 2013

Change the Weather History Date:

Thursday, July 18, 2013

  Actual Average Record
Temperature  
Mean Temperature 83 °F 79 °F  
Max Temperature 100 °F 90 °F 108 °F (2003)
Min Temperature 66 °F 68 °F 59 °F (2014)
Degree Days  
Heating Degree Days 0 0  
Month to date heating degree days 0 0  
Since 1 June heating degree days 13 8  
Since 1 July heating degree days 0 0  
Cooling Degree Days 18 14  
Month to date cooling degree days 258 233  
Year to date cooling degree days 697 627  
Since 1 June cooling degree days 570 508  
Growing Degree Days 32 (Base 50)    
Moisture  
Dew Point 66 °F    
Average Humidity 62    
Maximum Humidity 93    
Minimum Humidity 31    
Precipitation  
Precipitation 0.00 in 0.13 in 0.75 in (2001)
Month to date precipitation 0.22 2.80  
Year to date precipitation 15.88 22.15  
Sea Level Pressure  
Sea Level Pressure 30.10 in    
Wind  
Wind Speed 5 mph (South)    
Max Wind Speed 16 mph    
Max Gust Speed 23 mph    
Visibility 9 miles    
Events      
T = Trace of Precipitation, MM = Missing Value Source: NWS Daily Summary

Daily Weather History Graph

Daily Weather History Graph

Search for Another Location

Airport or City:

Trip Planner

Search our weather history database for the weather conditions in past years. The results will help you decide how hot, cold, wet, or windy it might be!

Date:

Astronomy

Jul. 18, 2013 Rise Set
Actual Time 6:10 AM CDT 8:43 PM CDT
Civil Twilight 5:39 AM CDT 9:14 PM CDT
Nautical Twilight 5:00 AM CDT 9:53 PM CDT
Astronomical Twilight 4:17 AM CDT 10:35 PM CDT
Moon 4:42 PM CDT (7/18) 2:00 AM CDT (7/18)
Length of Visible Light 15h 35m
Length of Day
14h 33m
Waxing Gibbous, 77% of the Moon is Illuminated
Jul 18
Waxing Gibbous
Jul 22
Full
Jul 29
Last Quarter
Aug 6
New
Aug 14
First Quarter

Hourly Weather History & Observations

Time (CDT) Temp. Heat Index Dew Point Humidity Pressure Visibility Wind Dir Wind Speed Gust Speed Precip Events Conditions
12:52 AM 72.0 °F - 66.9 °F 84% 30.19 in 10.0 mi Calm Calm - N/A   Clear
1:52 AM 71.1 °F - 66.9 °F 87% 30.19 in 10.0 mi Calm Calm - N/A   Clear
2:52 AM 71.1 °F - 66.9 °F 87% 30.19 in 10.0 mi Calm Calm - N/A   Clear
3:52 AM 70.0 °F - 66.9 °F 90% 30.17 in 10.0 mi Calm Calm - N/A   Clear
4:52 AM 68.0 °F - 64.9 °F 90% 30.17 in 10.0 mi Calm Calm - N/A   Clear
5:52 AM 66.9 °F - 64.0 °F 90% 30.17 in 8.0 mi Calm Calm - N/A   Clear
6:20 AM 66.2 °F - 64.4 °F 94% 30.19 in 1.2 mi Calm Calm - N/A   Clear
6:31 AM 66.2 °F - 64.4 °F 94% 30.19 in 3.0 mi Calm Calm - N/A   Clear
6:52 AM 69.1 °F - 66.0 °F 90% 30.17 in 4.0 mi Calm Calm - N/A   Clear
7:52 AM 75.0 °F - 69.1 °F 82% 30.17 in 9.0 mi Calm Calm - N/A   Clear
8:52 AM 81.0 °F 84.1 °F 69.1 °F 67% 30.17 in 9.0 mi Calm Calm - N/A   Clear
9:52 AM 87.1 °F 91.3 °F 69.1 °F 55% 30.16 in 10.0 mi Calm Calm - N/A   Clear
10:52 AM 91.0 °F 95.2 °F 68.0 °F 47% 30.14 in 10.0 mi SW 8.1 mph - N/A   Clear
11:52 AM 93.9 °F 97.0 °F 66.0 °F 40% 30.12 in 10.0 mi SSW 10.4 mph - N/A   Clear
12:52 PM 95.0 °F 97.4 °F 64.9 °F 37% 30.11 in 10.0 mi SSW 11.5 mph 17.3 mph N/A   Partly Cloudy
1:52 PM 95.0 °F 97.0 °F 64.0 °F 36% 30.09 in 10.0 mi SW 8.1 mph - N/A   Mostly Cloudy
2:52 PM 97.0 °F 99.3 °F 64.0 °F 34% 30.05 in 10.0 mi South 16.1 mph 23.0 mph N/A   Scattered Clouds
3:52 PM 98.1 °F 99.6 °F 63.0 °F 31% 30.02 in 10.0 mi SSW 10.4 mph 17.3 mph N/A   Scattered Clouds
4:52 PM 99.0 °F 100.5 °F 63.0 °F 30% 30.01 in 10.0 mi South 10.4 mph 19.6 mph N/A   Scattered Clouds
5:52 PM 98.1 °F 99.6 °F 63.0 °F 31% 29.99 in 10.0 mi South 8.1 mph - N/A   Scattered Clouds
6:52 PM 97.0 °F 97.8 °F 62.1 °F 31% 29.97 in 10.0 mi SSW 10.4 mph - N/A   Partly Cloudy
7:52 PM 93.0 °F 94.2 °F 63.0 °F 37% 29.97 in 10.0 mi SSW 8.1 mph - N/A   Clear
8:52 PM 84.0 °F 86.3 °F 66.0 °F 55% 29.97 in 10.0 mi SSE 3.5 mph - N/A   Clear
9:52 PM 79.0 °F - 66.9 °F 66% 29.99 in 10.0 mi SE 4.6 mph - N/A   Clear
10:52 PM 77.0 °F - 66.0 °F 69% 29.99 in 10.0 mi ESE 3.5 mph - N/A   Clear
11:52 PM 77.0 °F - 66.0 °F 69% 29.99 in 10.0 mi Calm Calm - N/A   Clear